EHI
3 3 3 3 3 2 1 0 0 0 0 0 0 0 0 0 0 0 0 0 0 0 0 0 0 0 0 0 0 0 0 0 0 0 0 0 0 0
3 3 3 3 3 3 1 0 0 0 0 0 0 0 0 0 0 0 0 0 0 0 0 0 0 0 0 0 0 0 0 0 0 0 0 0 0 0
1 2 2 3 4 3 1 0 0 0 0 0 0 0 0 0 0 0 0 0 0 0 0 0 0 0 0 0 0 0 0 0 0 0 0 0 0 0
0 1 1 2 3 3 2 0 0 0 0 0 0 0 0 0 0 0 0 0 0 0 0 0 0 0 0 0 0 0 0 0 0 0 0 0 0 0
0 0 0 1 1 2 2 1 0 0 0 0 0 0 0 0 0 0 0 0 0 0 0 0 0 0 0 0 0 0 0 0 0 0 0 0 0 0
0 0 0 0 0 1 2 1 1 0 0 0 0 0 0 0 0 0 0 0 0 0 0 0 0 0 0 0 0 0 0 0 0 0 0 0 0 0
0 0 0 0 0 1 2 2 2 1 0 0 0 0 0 0 0 0 0 0 0 0 0 0 0 0 0 0 0 0 0 0 0 0 0 0 0 0
0 0 0 0 0 0 1 1 2 1 0 0 0 0 0 0 0 0 0 0 0 0 0 0 0 0 0 0 0 0 0 0 0 0 0 0 0 0
0 0 0 0 0 0 0 0 1 1 0 0 0 0 0 0 0 0 0 0 0 0 0 0 0 0 0 0 0 0 0 0 0 0 0 0 0 0
0 0 0 0 0 0 0 0 0 0 0 0 0 0 0 0 0 0 0 0 0 0 0 0 0 0 0 0 0 0 0 0 0 0 0 0 0 0
0 0 0 0 0 0 0 0 1 0 0 0 0 0 0 0 0 0 0 0 0 0 0 0 0 0 0 0 0 0 0 0 0 0 0 0 0 0
0 0 0 0 0 0 0 0 0 0 0 0 0 0 0 0 0 0 0 0 0 0 0 0 0 0 0 0 0 0 0 0 0 0 0 0 0 0
0 0 0 0 0 0 0 0 0 0 0 0 0 0 0 0 0 0 0 0 0 0 0 0 0 0 0 0 0 0 0 0 0 0 0 0 0 0
0 0 0 0 0 0 0 0 0 0 0 0 0 0 0 0 0 0 0 0 0 0 0 0 0 0 0 0 0 0 0 0 0 0 0 0 0 0
0 0 0 0 0 0 0 0 0 0 0 0 0 0 0 0 0 0 0 0 0 0 0 0 0 0 0 0 0 0 0 0 0 0 0 0 0 0
0 0 0 0 0 0 0 0 0 0 0 0 0 0 0 0 0 0 0 0 0 0 0 0 0 0 0 0 0 0 0 0 0 0 0 0 0 0
0 0 0 0 0 0 0 0 0 0 0 0 0 0 0 0 0 0 0 0 0 0 0 0 0 0 0 0 0 0 0 0 0 0 0 0 0 0
0 0 0 0 0 0 0 0 0 0 0 0 0 0 0 0 0 0 0 0 0 0 0 0 0 0 0 0 0 0 0 0 0 0 0 0 0 0
0 0 0 0 0 0 0 0 0 0 0 0 0 0 0 0 0 0 0 0 0 0 0 0 0 0 0 0 0 0 0 0 0 0 0 0 0 0
0 0 0 0 0 0 0 0 0 0 0 0 0 0 0 0 0 0 0 0 0 0 0 0 0 0 0 0 0 0 0 0 0 0 0 0 0 0
0 0 0 0 0 0 0 0 0 0 0 0 0 0 0 0 0 0 0 0 0 0 0 0 0 0 0 0 0 0 0 0 0 0 0 0 0 0
0 0 0 0 0 0 0 0 0 0 0 0 0 0 0 0 0 0 0 0 0 0 0 0 0 0 0 0 0 0 0 0 0 0 0 0 0 0
0 0 0 0 0 0 0 0 0 0 0 0 0 0 0 0 0 0 0 0 0 0 0 0 0 0 0 0 0 0 0 0 0 0 0 0 0 0
Wind_Speed
3 3 3 2 2 2 2 3 3 2 3 3 2 2 2 1 3 3 4 8 9 9 9 10 10 9 9 9 9 9 9 9 10 10 11 12 12 12
2 2 2 2 2 2 2 2 3 3 3 3 3 2 2 2 3 3 4 7 8 8 9 9 9 9 9 9 9 8 8 9 9 9 9 10 11 11
2 2 3 3 2 2 2 2 2 2 3 4 2 2 2 3 2 2 2 3 3 6 7 8 8 8 8 9 9 9 9 9 9 9 9 9 9 10
3 2 3 3 3 3 2 2 2 3 3 4 3 2 2 3 2 2 2 2 2 5 7 8 8 9 9 9 9 9 9 9 9 9 9 9 10 10
3 3 3 2 3 2 2 2 2 2 2 2 3 2 2 1 1 2 2 1 2 4 6 7 8 9 9 9 9 9 9 10 10 10 9 9 9 9
3 3 3 2 2 3 2 2 2 2 2 2 2 2 2 1 0 1 2 1 2 2 2 3 5 7 8 9 9 9 10 10 10 10 10 10 10 10
3 3 2 2 2 2 2 2 2 2 1 1 2 1 2 1 1 1 1 2 2 1 1 2 1 2 4 7 9 10 10 10 11 11 11 11 11 11
3 3 2 2 2 2 2 2 2 2 2 2 2 2 3 2 2 2 1 1 2 1 0 2 1 2 3 3 7 9 10 10 11 11 11 11 11 11
2 2 3 3 3 2 3 3 3 3 4 3 3 4 3 3 2 2 2 2 3 2 1 2 2 3 3 4 8 9 10 10 10 11 11 11 11 11
2 2 2 3 3 2 2 3 3 3 3 3 3 4 4 3 4 3 3 2 3 2 2 2 2 3 3 3 7 9 10 10 10 10 11 11 11 11
3 2 2 2 4 3 1 2 4 4 3 2 3 4 5 5 4 1 1 1 2 3 2 2 2 2 3 3 5 8 10 10 10 10 11 11 11 10
3 3 4 3 4 3 1 2 3 4 3 4 3 3 3 3 4 4 4 3 2 2 2 2 2 1 2 3 2 3 4 7 9 10 10 11 10 6
3 3 4 5 5 4 3 3 5 4 3 2 3 3 3 2 2 3 4 4 4 4 4 3 2 2 2 3 3 3 3 3 4 5 8 10 11 9
3 3 4 6 6 6 4 4 5 3 1 1 2 3 3 3 3 3 4 5 6 7 5 4 3 3 3 3 4 3 3 3 3 4 4 6 8 11
2 4 6 6 6 4 4 5 3 1 0 1 2 3 3 3 3 2 3 3 4 6 6 5 5 4 4 4 4 3 3 3 4 4 4 4 4 4
3 5 6 5 3 3 4 3 1 1 1 2 3 3 3 2 2 2 2 2 2 4 4 4 5 5 4 5 5 4 4 3 3 4 4 4 4 5
2 2 3 3 4 3 3 3 2 2 1 2 2 2 3 3 3 2 2 1 2 3 4 3 3 3 5 4 4 5 4 4 4 4 3 4 5 5
1 1 2 2 2 3 3 3 3 2 2 2 2 2 3 3 3 3 2 2 3 3 4 3 2 2 2 3 6 5 4 5 4 4 4 4 5 5
1 1 2 3 2 2 2 2 3 3 2 2 2 3 3 3 3 3 3 2 3 4 4 3 2 1 3 4 5 6 5 4 3 3 4 5 5 5
0 1 2 3 2 2 2 2 2 3 2 2 2 3 3 3 3 3 3 3 3 4 4 3 3 3 4 5 4 4 5 4 3 4 3 3 3 3
2 2 2 2 2 2 2 2 2 2 2 2 2 3 3 3 3 3 3 5 4 3 4 5 5 6 3 1 2 3 3 4 5 4 3 2 2 2
2 1 2 2 2 2 2 2 2 2 3 2 3 3 3 3 3 4 4 4 3 4 4 5 5 3 1 2 3 4 4 3 3 3 3 3 3 3
1 1 1 2 2 2 2 3 3 3 3 3 3 3 4 4 3 3 4 3 3 4 4 4 4 3 2 2 3 3 3 3 2 1 2 2 2 2
Wind_Direction
245 238 232 231 219 213 199 184 189 249 272 260 265 265 271 261 243 230 229 227 229 232 231 228 230 232 233 235 235 229 226 222 221 223 226 228 229 229
256 247 247 236 234 220 208 206 198 206 248 257 253 263 278 277 261 241 240 235 229 229 230 228 228 231 233 231 226 222 220 218 220 222 224 226 229 231
288 260 245 234 231 226 212 211 212 200 241 273 268 263 249 256 272 257 250 240 234 234 234 231 228 231 231 226 221 220 219 219 221 223 224 227 229 232
281 281 267 245 230 223 210 216 220 210 213 259 280 282 260 251 249 247 247 242 238 241 235 235 235 233 229 226 223 221 218 217 218 220 222 223 226 229
270 275 278 258 244 234 218 221 231 233 214 225 260 271 272 269 278 277 267 260 256 246 237 237 239 236 231 229 227 224 220 218 218 219 222 224 227 228
291 275 271 271 245 239 233 230 227 236 232 226 249 268 270 282 264 267 294 293 276 269 252 242 241 240 236 232 229 226 224 224 222 221 222 224 227 230
312 304 292 279 258 245 233 236 226 228 233 231 245 264 273 282 262 252 258 290 299 271 278 268 249 250 242 235 233 230 228 226 225 225 226 226 227 229
320 321 318 308 305 306 277 255 228 217 227 228 237 235 251 243 242 236 234 278 295 280 205 276 231 250 250 237 233 229 230 229 227 226 226 226 227 229
317 320 327 331 324 311 318 326 312 283 237 213 223 237 235 227 207 230 227 218 237 240 184 267 255 256 252 246 238 232 231 234 233 230 228 228 229 230
309 289 294 312 320 313 324 325 318 307 277 234 223 241 242 236 216 213 215 241 271 258 185 239 258 254 261 255 245 237 235 234 234 234 231 229 230 230
314 310 293 299 308 317 332 314 318 313 309 272 248 257 258 255 229 175 195 209 280 278 205 203 250 261 265 256 250 239 237 237 238 239 237 233 231 229
318 315 309 307 306 306 275 270 289 293 315 329 325 315 291 276 241 198 195 202 232 267 238 193 236 231 291 272 255 243 235 241 240 239 239 235 226 218
310 311 311 317 317 310 294 245 249 268 293 298 302 306 306 295 270 227 207 200 208 236 231 187 214 208 222 274 282 249 230 234 235 239 237 233 222 206
291 297 301 313 315 311 297 280 275 276 266 302 311 304 301 293 282 261 237 227 225 233 236 199 209 211 219 251 268 268 246 234 227 237 236 231 226 219
288 297 307 315 321 320 306 300 296 274 249 292 287 282 274 272 282 291 287 270 260 254 247 225 219 225 215 231 247 250 259 255 226 228 233 228 222 208
333 328 332 335 339 333 331 333 323 275 244 255 273 281 292 302 299 290 288 295 296 292 277 248 230 220 230 234 233 248 238 240 239 224 226 234 229 215
337 352 0 358 360 354 346 340 342 348 327 294 288 302 309 314 307 305 296 292 272 282 297 298 268 234 226 223 241 249 250 248 242 233 224 237 239 226
30 2 332 333 335 334 330 327 330 328 314 313 312 304 302 306 310 312 304 292 286 284 283 287 304 324 317 267 225 238 246 244 245 233 218 228 247 237
54 313 304 305 304 307 311 310 311 314 319 324 321 314 310 310 311 312 311 304 296 289 287 283 272 245 270 282 273 228 228 243 238 235 226 221 236 242
332 291 298 301 302 302 304 306 312 323 327 321 321 322 321 317 315 311 309 304 301 298 299 296 271 244 235 249 265 277 245 232 234 239 240 232 238 248
309 308 305 305 308 311 309 310 317 319 320 321 320 317 317 316 312 306 302 304 304 302 301 294 282 272 256 252 276 283 284 250 222 220 225 226 235 238
303 308 315 331 341 344 342 340 339 334 332 329 320 316 314 310 307 307 307 307 302 296 293 294 304 314 295 262 267 271 286 301 272 252 236 209 195 208
288 307 338 350 356 358 355 352 351 341 335 327 319 315 315 315 311 306 306 308 312 314 316 317 322 324 302 275 273 271 281 296 313 345 335 316 237 223